Find Starlink 3147

NORAD ID: 49410 Int'l Des: 2021-104 Owner: SPXS Country: US Constellation: starlink operational
LEOCIRCULAR

Live Position

Loading 3D Globe...

About Starlink 3147

Description loading...

Upcoming Passes

Passes for default location (London). Set your location on the main map for personalized predictions.

Altitude History

Loading altitude history...

Two-Line Element Set

1 49410U 21104C 26124.75935038 .00000534 00000-0 51622-4 0 9993
2 49410 53.2173 337.4232 0001291 93.3177 266.7962 15.08833217247096
Epoch: May 4, 2026 • Age: 13 hours

Current Status

Altitude 540.0 km
Velocity 7.60 km/s
Sub-Earth Point 21.33°N, 22.82°E
Launch Date Nov 13, 2021
Age 4.4 years
Type internet

Technical Details

Classification Payload
Mass 290.00 kg
Dry Mass 270.00 kg
Total Mass 290.00 kg
Length 0.20 m
Diameter 2.80 m
Span 9.00 m
Shape Box + pan
Manufacturer SPXS
Bus Type Starlink
Phase Status In Orbit
Owner/State SPXS/US

Most Searched